GW1618 Weather Reports


Display with metric or nautical units.
time (UTC)temp
F
wind
direction
speed
MPH
gust
MPH
rain 1hr
in
rain 24hr
in
rain mn
in
humidity
%
barometer
mb
20260903192243 60 196 7.0 15.0 0.00 0.21 0.07 70 1008.7
20260903191739 60 208 7.0 13.0 0.00 0.21 0.07 72 1008.7
20260903191240 60 194 8.0 15.0 0.00 0.21 0.07 71 1008.7
20260903191036 60 155 8.0 15.0 0.00 0.21 0.07 70 1008.7
20260903190240 60 180 7.0 16.0 0.00 0.21 0.07 71 1008.7
20260903185738 60 183 9.0 16.0 0.00 0.21 0.07 72 1008.7
20260903185238 60 203 10.0 18.0 0.00 0.21 0.07 72 1008.7
20260903184740 60 221 8.0 18.0 0.00 0.21 0.07 71 1008.7
20260903184234 60 207 10.0 21.0 0.00 0.21 0.07 73 1008.7
20260903183737 59 181 12.0 25.0 0.00 0.21 0.07 73 1008.6
20260903183534 60 191 10.0 25.0 0.00 0.21 0.07 74 1008.6
20260903182731 60 216 9.0 19.0 0.00 0.21 0.07 73 1008.6
20260903182233 60 194 10.0 21.0 0.00 0.21 0.07 74 1008.6
20260903181732 60 190 9.0 21.0 0.00 0.21 0.07 74 1008.6
20260903181222 59 184 10.0 19.0 0.00 0.21 0.07 75 1008.6
20260903180725 59 197 10.0 19.0 0.00 0.21 0.07 75 1008.4
20260903180218 59 223 9.0 19.0 0.00 0.21 0.07 76 1008.4
20260903175712 59 201 8.0 13.0 0.00 0.21 0.07 77 1008.4
20260903175514 59 186 7.0 14.0 0.00 0.21 0.07 76 1008.2
20260903174713 59 182 9.0 21.0 0.00 0.21 0.07 77 1008.2
20260903174503 59 192 11.0 21.0 0.00 0.21 0.07 76 1008.2
20260903173713 59 225 8.0 20.0 0.00 0.21 0.07 76 1008.2
20260903173504 59 175 6.0 13.0 0.00 0.21 0.07 78 1008.2
20260903172705 58 165 8.0 15.0 0.00 0.21 0.07 79 1008.2
20260903172257 58 176 7.0 15.0 0.00 0.21 0.07 79 1008.2
20260903171257 58 185 6.0 14.0 0.00 0.21 0.07 81 1008.2
20260903170202 57 192 6.0 12.0 0.00 0.21 0.07 83 1008.1
20260903165702 57 231 6.0 13.0 0.00 0.21 0.07 84 1008.1
20260903165204 57 170 5.0 13.0 0.00 0.21 0.07 84 1008.1
20260903164709 57 184 4.0 11.0 0.00 0.21 0.07 85 1008.1
20260903164204 57 189 4.0 7.0 0.00 0.21 0.07 86 1008.1
20260903163706 56 209 4.0 9.0 0.00 0.21 0.07 86 1008.1
20260903163504 56 174 5.0 12.0 0.00 0.21 0.07 86 1008.1
20260903162701 56 154 5.0 12.0 0.01 0.21 0.07 86 1008.1
20260903162206 56 184 4.0 9.0 0.01 0.21 0.07 87 1008.2
20260903161958 56 177 4.0 8.0 0.01 0.21 0.07 87 1008.2
20260903161202 56 196 5.0 9.0 0.01 0.21 0.07 87 1008.2
20260903161014 56 192 5.0 9.0 0.01 0.21 0.07 87 1008.2
20260903160206 56 183 5.0 12.0 0.01 0.21 0.07 87 1008.2
20260903155702 56 230 5.0 12.0 0.01 0.21 0.07 88 1008.2
20260903155202 56 175 5.0 10.0 0.01 0.21 0.07 88 1008.1
20260903155011 56 167 5.0 11.0 0.01 0.21 0.07 88 1008.1
20260903154508 56 212 5.0 11.0 0.01 0.21 0.07 88 1008.1
20260903153708 56 177 6.0 12.0 0.01 0.21 0.07 88 1008.1
20260903153517 56 194 7.0 12.0 0.01 0.21 0.07 88 1008.1
20260903152947 56 185 6.0 12.0 0.00 0.20 0.06 88 1008.1
20260903152146 56 148 5.0 10.0 0.00 0.20 0.06 88 1008.0
20260903151645 56 188 5.0 10.0 0.00 0.20 0.06 88 1008.0
20260903151137 55 211 4.0 7.0 0.00 0.20 0.06 88 1007.7
20260903150634 55 177 5.0 10.0 0.01 0.20 0.06 88 1007.7
20260903150124 55 193 5.0 10.0 0.01 0.20 0.06 88 1007.7
20260903145624 55 217 4.0 10.0 0.01 0.20 0.06 88 1007.6
20260903145422 55 167 6.0 11.0 0.01 0.20 0.06 87 1007.6
20260903144622 55 198 6.0 11.0 0.01 0.20 0.06 87 1007.6
20260903144126 55 198 6.0 14.0 0.01 0.20 0.06 88 1007.6
20260903143625 55 171 6.0 14.0 0.01 0.20 0.06 88 1007.6
20260903143120 55 177 6.0 13.0 0.01 0.20 0.06 88 1007.6
20260903142613 55 171 6.0 14.0 0.01 0.20 0.06 88 1007.5
20260903142111 55 177 7.0 16.0 0.01 0.20 0.06 88 1007.5
20260903141609 55 190 8.0 16.0 0.01 0.20 0.06 88 1007.5
20260903141106 55 177 7.0 13.0 0.01 0.20 0.05 87 1007.3
20260903140606 55 205 6.0 12.0 0.01 0.19 0.05 87 1007.3
20260903140107 55 172 6.0 11.0 0.01 0.19 0.05 87 1007.3
20260903135611 55 163 7.0 15.0 0.01 0.19 0.05 86 1007.2
20260903135410 55 227 7.0 15.0 0.01 0.19 0.05 86 1007.2
20260903134917 55 163 6.0 13.0 0.01 0.19 0.05 86 1007.2
20260903134105 55 187 6.0 12.0 0.01 0.19 0.05 87 1007.1
20260903133605 55 161 6.0 15.0 0.01 0.19 0.05 87 1007.1
20260903133103 55 198 6.0 16.0 0.01 0.19 0.05 87 1007.1
20260903132602 55 174 6.0 16.0 0.01 0.19 0.05 87 1007.1
20260903132105 55 198 5.0 12.0 0.01 0.19 0.05 88 1007.1
20260903131913 55 202 5.0 12.0 0.01 0.19 0.05 88 1007.1
20260903131102 55 169 7.0 12.0 0.01 0.19 0.05 87 1007.0
20260903130552 55 201 7.0 14.0 0.00 0.18 0.04 87 1007.0
20260903130042 55 202 6.0 16.0 0.00 0.18 0.04 87 1007.0
20260903125531 55 172 5.0 16.0 0.01 0.18 0.04 87 1006.9
20260903125031 55 202 5.0 12.0 0.01 0.18 0.04 87 1006.9
20260903124531 56 225 6.0 12.0 0.01 0.18 0.04 87 1006.9
20260903124022 55 186 7.0 13.0 0.01 0.18 0.04 87 1007.0
20260903123511 55 176 8.0 13.0 0.02 0.18 0.04 87 1007.0
20260903123007 55 182 7.0 13.0 0.02 0.18 0.04 87 1007.0
20260903122506 55 197 7.0 12.0 0.02 0.18 0.04 87 1006.9
20260903122004 55 190 7.0 13.0 0.02 0.18 0.04 87 1006.9
20260903121501 55 201 6.0 13.0 0.02 0.18 0.04 87 1006.9
20260903121001 55 198 5.0 11.0 0.02 0.18 0.04 88 1006.9
20260903120501 55 174 6.0 15.0 0.03 0.18 0.04 88 1006.9
20260903120002 55 164 7.0 15.0 0.02 0.17 0.03 88 1006.9
20260903115502 55 183 7.0 13.0 0.02 0.17 0.03 88 1006.8
20260903115001 55 173 6.0 15.0 0.02 0.17 0.03 87 1006.8
20260903114501 55 196 6.0 15.0 0.02 0.17 0.03 87 1006.8
20260903114319 55 217 6.0 12.0 0.02 0.17 0.03 87 1006.7
20260903113505 56 192 6.0 11.0 0.01 0.16 0.02 87 1006.7
20260903113007 56 159 7.0 14.0 0.01 0.16 0.02 87 1006.7
20260903112508 56 165 7.0 14.0 0.01 0.16 0.02 87 1006.8
20260903112002 56 168 7.0 13.0 0.01 0.16 0.02 86 1006.8
20260903111503 56 187 7.0 12.0 0.01 0.16 0.02 86 1006.8
20260903111002 56 226 7.0 12.0 0.01 0.16 0.02 85 1006.9
20260903110503 56 188 6.0 12.0 0.00 0.15 0.01 85 1006.9
20260903105955 56 221 6.0 15.0 0.00 0.15 0.01 84 1006.9
20260903105454 56 169 6.0 15.0 0.00 0.15 0.01 84 1006.9
20260903105027 56 169 5.0 10.0 0.00 0.15 0.01 84 1006.9
20260903103934 56 180 4.0 7.0 0.00 0.15 0.01 84 1006.9
20260903103425 56 200 4.0 9.0 0.00 0.15 0.01 84 1006.9
20260903102922 56 177 4.0 9.0 0.00 0.15 0.01 84 1006.9
20260903102417 56 191 4.0 7.0 0.00 0.15 0.01 84 1006.7
20260903101912 56 196 4.0 8.0 0.00 0.15 0.01 84 1006.7
20260903101412 56 177 4.0 8.0 0.00 0.15 0.01 84 1006.7
20260903100912 56 215 4.0 7.0 0.00 0.15 0.01 84 1006.6
20260903100740 56 228 3.0 7.0 0.00 0.15 0.01 84 1006.6
20260903095908 56 180 4.0 7.0 0.00 0.15 0.01 84 1006.6
20260903095409 56 188 5.0 10.0 0.00 0.15 0.01 84 1006.6
20260903094907 56 182 5.0 10.0 0.00 0.15 0.01 84 1006.6
20260903094705 56 185 4.0 7.0 0.00 0.15 0.01 84 1006.6
20260903094222 56 177 4.0 11.0 0.00 0.15 0.01 84 1006.6
20260903093835 56 176 5.0 11.0 0.00 0.15 0.01 84 1006.6
20260903092401 56 172 5.0 10.0 0.00 0.15 0.01 84 1006.8
20260903091902 56 169 4.0 10.0 0.00 0.15 0.01 84 1006.8
20260903091401 56 178 4.0 10.0 0.00 0.15 0.01 85 1006.8
20260903090901 56 200 4.0 9.0 0.00 0.15 0.01 85 1006.7
20260903090417 56 176 5.0 11.0 0.00 0.15 0.01 86 1006.7
20260903085914 56 210 5.0 11.0 0.00 0.15 0.01 85 1006.7
20260903085412 56 187 5.0 11.0 0.00 0.15 0.01 86 1006.7
20260903084903 56 222 5.0 11.0 0.01 0.15 0.01 86 1006.7
20260903084403 56 190 5.0 10.0 0.01 0.15 0.01 86 1006.7
20260903083901 56 206 6.0 11.0 0.01 0.15 0.01 86 1006.7
20260903083406 56 192 6.0 11.0 0.01 0.15 0.01 86 1006.7
20260903083156 56 182 7.0 12.0 0.01 0.15 0.01 86 1006.7
20260903082402 56 192 6.0 12.0 0.01 0.15 0.01 86 1006.6
20260903081902 56 193 5.0 9.0 0.01 0.15 0.01 86 1006.6
20260903081654 56 213 5.0 10.0 0.01 0.15 0.01 87 1006.6
20260903080900 56 202 5.0 10.0 0.01 0.15 0.01 86 1006.6
20260903080730 56 198 4.0 9.0 0.01 0.15 0.01 86 1006.6
20260903075902 56 190 4.0 6.0 0.01 0.15 0.01 86 1006.6
20260903075403 56 204 4.0 10.0 0.01 0.15 0.01 85 1006.7
20260903074905 56 175 5.0 10.0 0.00 0.14 0.00 85 1006.7
20260903074401 56 196 6.0 11.0 0.00 0.14 0.00 85 1006.7
20260903073905 56 196 5.0 11.0 0.00 0.14 0.00 84 1006.6
20260903073401 56 203 5.0 9.0 0.00 0.14 0.00 84 1006.6
20260903072904 56 202 5.0 11.0 0.00 0.14 0.00 84 1006.6
20260903072407 56 207 6.0 11.0 0.00 0.14 0.00 83 1006.6
20260903071909 56 208 6.0 11.0 0.00 0.14 0.00 83 1006.6
20260903071409 56 226 6.0 11.0 0.00 0.14 0.00 83 1006.6
20260903070903 56 208 5.0 9.0 0.00 0.14 0.00 84 1006.5
20260903070402 56 219 4.0 7.0 0.00 0.14 0.00 83 1006.5
20260903065903 56 218 4.0 7.0 0.00 0.14 0.14 84 1006.5
20260903065402 55 220 3.0 6.0 0.00 0.14 0.14 84 1006.5
20260903064901 55 228 2.0 4.0 0.00 0.14 0.14 84 1006.5
20260903064404 55 224 2.0 4.0 0.00 0.14 0.14 84 1006.5
20260903063907 55 215 1.0 3.0 0.00 0.14 0.14 84 1006.5
20260903063651 55 239 1.0 3.0 0.00 0.14 0.14 84 1006.5
20260903062905 55 219 2.0 3.0 0.00 0.14 0.14 84 1006.5
20260903062403 55 217 2.0 3.0 0.00 0.14 0.14 84 1006.6
20260903061903 55 207 2.0 3.0 0.00 0.14 0.14 84 1006.6
20260903061404 55 216 1.0 4.0 0.00 0.14 0.14 84 1006.6
20260903060856 55 210 1.0 4.0 0.00 0.14 0.14 85 1006.6
20260903060345 54 308 0.0 0.0 0.00 0.14 0.14 84 1006.6
20260903055911 54 308 0.0 0.0 0.00 0.14 0.14 84 1006.6
20260903054807 55 308 0.0 2.0 0.00 0.14 0.14 83 1006.5
20260903054305 55 308 1.0 2.0 0.00 0.14 0.14 83 1006.5
20260903053745 55 336 1.0 2.0 0.00 0.14 0.14 83 1006.5
20260903053234 56 340 1.0 2.0 0.00 0.14 0.14 82 1006.5
20260903052731 56 9 1.0 2.0 0.00 0.14 0.14 81 1006.5
20260903052234 56 189 0.0 2.0 0.00 0.14 0.14 80 1006.4
20260903052038 56 187 1.0 3.0 0.00 0.14 0.14 80 1006.4
20260903051216 56 227 1.0 3.0 0.00 0.14 0.14 80 1006.4
20260903050720 56 221 0.0 2.0 0.00 0.14 0.14 80 1006.4
20260903050211 57 182 0.0 2.0 0.00 0.14 0.14 80 1006.4
20260903045713 57 175 1.0 3.0 0.00 0.14 0.14 79 1006.4
20260903045213 57 176 1.0 4.0 0.00 0.14 0.14 79 1006.3
20260903044705 57 219 1.0 4.0 0.00 0.14 0.14 79 1006.3
20260903044206 57 204 1.0 3.0 0.00 0.14 0.14 78 1006.3
20260903043707 58 221 2.0 4.0 0.00 0.14 0.14 76 1006.2
20260903043513 57 213 2.0 4.0 0.00 0.14 0.14 76 1006.2
20260903042658 57 180 1.0 3.0 0.00 0.14 0.14 77 1006.2
20260903042204 58 175 1.0 3.0 0.00 0.14 0.14 78 1006.1
20260903041657 58 194 1.0 3.0 0.00 0.14 0.14 79 1006.1
20260903041150 58 235 2.0 3.0 0.00 0.14 0.14 74 1006.1
20260903040650 58 208 2.0 4.0 0.00 0.14 0.14 74 1006.2
20260903040149 58 195 2.0 4.0 0.00 0.14 0.14 72 1006.2
20260903035649 58 161 2.0 3.0 0.00 0.14 0.14 73 1006.2
20260903035151 59 189 2.0 4.0 0.00 0.14 0.14 75 1006.1
20260903034651 59 188 3.0 4.0 0.00 0.14 0.14 75 1006.1
20260903034141 59 215 2.0 4.0 0.00 0.14 0.14 74 1005.9
20260903034055 59 212 2.0 5.0 0.00 0.14 0.14 73 1005.9
20260903033130 60 242 3.0 5.0 0.00 0.14 0.14 69 1005.9
20260903032631 60 180 3.0 6.0 0.00 0.14 0.14 68 1005.8
20260903032130 60 179 3.0 6.0 0.00 0.14 0.14 68 1005.8
20260903032106 60 157 5.0 11.0 0.00 0.14 0.14 68 1005.8
20260903031138 60 172 7.0 13.0 0.00 0.14 0.14 68 1005.6
20260903030640 60 188 6.0 13.0 0.00 0.14 0.14 68 1005.6
20260903030133 60 205 6.0 12.0 0.00 0.14 0.14 68 1005.6
20260903025636 60 215 5.0 11.0 0.00 0.14 0.14 68 1005.4
20260903025133 61 217 6.0 11.0 0.00 0.14 0.14 68 1005.4
20260903024852 61 196 7.0 13.0 0.00 0.14 0.14 68 1005.4
20260903024631 61 196 7.0 13.0 0.00 0.14 0.14 68 1005.4
20260903024133 61 215 7.0 13.0 0.00 0.14 0.14 68 1005.1
20260903023633 61 205 7.0 13.0 0.00 0.14 0.14 68 1005.1
20260903023223 61 190 6.0 15.0 0.00 0.14 0.14 67 1005.1
20260903022848 61 229 7.0 15.0 0.00 0.14 0.14 66 1005.0
20260903022558 62 212 8.0 16.0 0.00 0.14 0.14 66 1005.0
20260903021629 62 204 6.0 16.0 0.00 0.14 0.14 65 1005.0
20260903021133 62 232 6.0 19.0 0.00 0.14 0.14 66 1005.0
20260903020646 62 217 6.0 19.0 0.00 0.14 0.14 65 1005.0
20260903020432 62 226 4.0 10.0 0.00 0.14 0.14 66 1005.0
20260903020207 62 226 4.0 10.0 0.00 0.14 0.14 66 1005.0
20260903015702 62 209 4.0 9.0 0.00 0.14 0.14 68 1005.0
20260903015637 62 180 4.0 9.0 0.00 0.14 0.14 68 1005.0
20260903014629 62 234 5.0 9.0 0.00 0.14 0.14 68 1005.0
20260903014132 62 221 5.0 10.0 0.00 0.14 0.14 68 1004.7
20260903013630 62 228 7.0 12.0 0.00 0.14 0.14 68 1004.7
20260903012631 62 188 7.0 16.0 0.00 0.14 0.14 67 1004.5
20260903012458 62 216 6.0 19.0 0.00 0.14 0.14 67 1004.5
20260903011906 62 189 8.0 19.0 0.00 0.14 0.14 68 1004.5
20260903011134 62 224 6.0 18.0 0.00 0.14 0.14 68 1004.5
20260903010936 62 228 6.0 14.0 0.00 0.14 0.14 68 1004.5
20260903010444 62 244 8.0 16.0 0.00 0.14 0.14 69 1004.5
20260903005633 61 254 8.0 16.0 0.00 0.14 0.14 70 1004.5
20260903005120 61 246 10.0 20.0 0.00 0.14 0.14 71 1004.5
20260903004611 61 234 11.0 22.0 0.00 0.14 0.14 70 1004.5
20260903004542 61 212 10.0 22.0 0.00 0.14 0.14 70 1004.5
20260903003552 61 262 7.0 19.0 0.00 0.14 0.14 70 1004.5
20260903003110 60 233 6.0 16.0 0.00 0.14 0.14 72 1004.5
20260903002600 60 224 7.0 16.0 0.00 0.14 0.14 72 1004.5
20260903002057 60 276 7.0 16.0 0.00 0.14 0.14 72 1004.5
20260903001554 60 257 8.0 15.0 0.00 0.14 0.14 73 1004.5
20260903001051 60 248 9.0 19.0 0.00 0.14 0.14 74 1004.0
20260903000549 61 223 9.0 19.0 0.00 0.14 0.14 73 1004.0
20260903000053 62 258 8.0 15.0 0.00 0.14 0.14 76 1004.0
20260902235545 62 250 10.0 20.0 0.00 0.14 0.14 75 1003.7
20260902235044 62 261 9.0 21.0 0.00 0.14 0.14 74 1003.7
20260902234842 62 300 10.0 22.0 0.00 0.14 0.14 76 1003.7
20260902234044 62 229 13.0 24.0 0.00 0.14 0.14 75 1003.5
20260902233537 61 196 10.0 24.0 0.00 0.14 0.14 75 1003.5
20260902233034 61 188 10.0 23.0 0.00 0.14 0.14 76 1003.5
20260902232537 61 194 12.0 23.0 0.00 0.14 0.14 76 1003.4
20260902232035 61 204 12.0 28.0 0.00 0.14 0.14 76 1003.4
20260902231535 61 174 12.0 28.0 0.00 0.14 0.14 76 1003.4
20260902231034 61 185 12.0 21.0 0.00 0.14 0.14 76 1003.3
20260902230837 60 188 10.0 20.0 0.00 0.14 0.14 76 1003.3
20260902230041 60 182 12.0 24.0 0.00 0.14 0.14 76 1003.3
20260902225618 60 204 13.0 24.0 0.01 0.14 0.14 76 1003.0
20260902224531 60 192 12.0 26.0 0.02 0.14 0.14 76 1003.0
20260902224029 60 219 10.0 22.0 0.02 0.14 0.14 77 1002.9
20260902223548 60 220 9.0 18.0 0.03 0.14 0.14 78 1002.9
20260902223031 59 192 8.0 17.0 0.03 0.14 0.14 80 1002.9
20260902222529 59 191 7.0 14.0 0.04 0.14 0.14 81 1002.8
20260902222030 59 152 6.0 12.0 0.05 0.14 0.14 83 1002.8
20260902221529 59 184 6.0 12.0 0.06 0.14 0.14 83 1002.8
20260902221034 59 159 6.0 11.0 0.07 0.14 0.14 83 1002.9
20260902220530 59 192 6.0 12.0 0.07 0.14 0.14 84 1002.9
20260902220034 58 172 7.0 16.0 0.07 0.14 0.14 84 1002.9
20260902215539 58 144 6.0 16.0 0.07 0.13 0.13 84 1003.0
20260902215413 58 169 5.0 10.0 0.08 0.13 0.13 84 1003.0
20260902214534 58 144 5.0 11.0 0.07 0.12 0.12 84 1003.0
20260902214031 58 139 5.0 11.0 0.08 0.12 0.12 83 1003.2
20260902213530 59 194 6.0 12.0 0.07 0.12 0.11 83 1003.2
20260902213030 59 180 7.0 15.0 0.08 0.12 0.11 83 1003.2
20260902212852 59 188 9.0 16.0 0.07 0.11 0.10 83 1003.3
20260902212033 59 186 9.0 16.0 0.06 0.10 0.08 81 1003.3
20260902211535 59 189 7.0 15.0 0.06 0.09 0.08 81 1003.3
20260902211031 59 159 6.0 11.0 0.05 0.08 0.07 82 1003.4
20260902210531 59 174 5.0 9.0 0.06 0.08 0.07 82 1003.4
20260902210129 59 205 6.0 11.0 0.06 0.08 0.07 82 1003.4
20260902205031 59 220 8.0 18.0 0.04 0.06 0.05 80 1003.5
20260902204633 59 200 9.0 18.0 0.05 0.06 0.05 80 1003.5
20260902203530 59 157 7.0 16.0 0.04 0.05 0.04 80 1003.5
20260902203337 60 186 8.0 17.0 0.03 0.04 0.03 80 1003.5
20260902202518 60 184 8.0 17.0 0.03 0.04 0.03 79 1003.7
20260902202007 60 177 7.0 17.0 0.02 0.03 0.02 79 1003.7
20260902201503 60 168 9.0 19.0 0.02 0.03 0.02 79 1003.7
20260902200958 60 173 11.0 19.0 0.02 0.03 0.02 77 1004.0
20260902200444 61 177 11.0 19.0 0.01 0.02 0.01 76 1004.0
20260902195946 61 190 12.0 28.0 0.01 0.02 0.01 75 1004.0
20260902195436 62 177 13.0 28.0 0.01 0.02 0.01 73 1003.6
20260902195154 62 171 11.0 21.0 0.00 0.01 0.00 72 1003.6
20260902194437 62 180 9.0 20.0 0.00 0.01 0.00 71 1003.6
20260902193935 63 154 9.0 19.0 0.00 0.01 0.00 70 1003.9
20260902193439 63 163 11.0 22.0 0.00 0.01 0.00 69 1003.9
20260902192935 63 236 11.0 22.0 0.00 0.01 0.00 68 1003.9
20260902192433 63 206 11.0 22.0 0.00 0.01 0.00 68 1004.0